Kansas City, MO

5:05 AM CST on February 21, 2017 (GMT -0600)
Kansas City Downtown

Weather History for KMKC - July, 2013

Change the Weather History Date:

Sunday, July 7, 2013

  Actual Average Record
Temperature  
Mean Temperature 83 °F -  
Max Temperature 91 °F 86 °F 107 °F (2012)
Min Temperature 75 °F 68 °F 61 °F (2004)
Cooling Degree Days 18    
Growing Degree Days 33 (Base 50)    
Moisture  
Dew Point 66 °F    
Average Humidity 56    
Maximum Humidity 76    
Minimum Humidity 41    
Precipitation  
Precipitation 0.09 in - - ()
Sea Level Pressure  
Sea Level Pressure 29.92 in    
Wind  
Wind Speed 9 mph (SSW)    
Max Wind Speed 18 mph    
Max Gust Speed 25 mph    
Visibility 10 miles    
Events Rain    
Averages and records for this station are not official NWS values.
T = Trace of Precipitation, MM = Missing Value Source: NWS Daily Summary

Daily Weather History Graph

Daily Weather History Graph

Search for Another Location

Airport or City:

Trip Planner

Search our weather history database for the weather conditions in past years. The results will help you decide how hot, cold, wet, or windy it might be!

Date:

Astronomy

Jul. 07, 2013 Rise Set
Actual Time 5:59 AM CDT 8:46 PM CDT
Civil Twilight 5:27 AM CDT 9:18 PM CDT
Nautical Twilight 4:47 AM CDT 9:58 PM CDT
Astronomical Twilight 4:02 AM CDT 10:43 PM CDT
Moon 5:35 AM CDT (7/7) 8:12 PM CDT (7/7)
Length of Visible Light 15h 51m
Length of Day
14h 47m
Waning Crescent, 0% of the Moon is Illuminated
Jul 7
Waning Crescent
Jul 8
New
Jul 15
First Quarter
Jul 22
Full
Jul 29
Last Quarter

Hourly Weather History & Observations

Time (CDT) Temp. Heat Index Dew Point Humidity Pressure Visibility Wind Dir Wind Speed Gust Speed Precip Events Conditions
12:54 AM 80.1 °F 81.5 °F 63.0 °F 56% 29.90 in 10.0 mi SSW 8.1 mph - N/A   Clear
1:54 AM 78.1 °F - 64.9 °F 64% 29.92 in 8.0 mi Calm Calm - 0.01 in Rain Light Rain
2:54 AM 75.0 °F - 64.9 °F 71% 29.92 in 10.0 mi South 6.9 mph - 0.08 in Rain Light Rain
3:54 AM 75.9 °F - 64.0 °F 67% 29.92 in 10.0 mi SSW 4.6 mph - 0.00 in   Overcast
4:54 AM 75.9 °F - 64.9 °F 69% 29.93 in 10.0 mi Calm Calm - N/A   Mostly Cloudy
5:54 AM 75.0 °F - 66.9 °F 76% 29.94 in 10.0 mi Calm Calm - N/A   Overcast
6:54 AM 75.9 °F - 64.9 °F 69% 29.94 in 10.0 mi South 5.8 mph - N/A   Scattered Clouds
7:54 AM 78.1 °F - 66.0 °F 66% 29.95 in 10.0 mi South 6.9 mph - N/A   Partly Cloudy
8:54 AM 79.0 °F - 66.0 °F 64% 29.95 in 10.0 mi South 6.9 mph - N/A   Clear
9:54 AM 82.0 °F 84.1 °F 66.0 °F 58% 29.95 in 10.0 mi South 13.8 mph - N/A   Clear
10:54 AM 84.0 °F 86.3 °F 66.0 °F 55% 29.94 in 10.0 mi SSW 18.4 mph 24.2 mph N/A   Clear
11:54 AM 84.9 °F 87.1 °F 66.0 °F 53% 29.94 in 10.0 mi SW 13.8 mph 21.9 mph N/A   Clear
12:54 PM 90.0 °F 92.8 °F 66.9 °F 46% 29.92 in 10.0 mi SSW 18.4 mph 23.0 mph N/A   Clear
1:54 PM 91.0 °F 94.3 °F 66.9 °F 45% 29.91 in 10.0 mi SSW 15.0 mph 20.7 mph N/A   Clear
2:54 PM 90.0 °F 92.4 °F 66.0 °F 45% 29.91 in 10.0 mi SSW 13.8 mph 23.0 mph N/A   Clear
3:54 PM 91.9 °F 94.1 °F 64.9 °F 41% 29.89 in 10.0 mi SSW 17.3 mph 25.3 mph N/A   Clear
4:54 PM 91.9 °F 94.5 °F 66.0 °F 42% 29.89 in 10.0 mi SSW 16.1 mph 23.0 mph N/A   Clear
5:54 PM 90.0 °F 93.6 °F 68.0 °F 48% 29.90 in 10.0 mi South 15.0 mph - N/A   Clear
6:54 PM 89.1 °F 92.9 °F 68.0 °F 50% 29.90 in 10.0 mi South 16.1 mph 20.7 mph N/A   Clear
7:54 PM 88.0 °F 90.7 °F 66.9 °F 49% 29.90 in 10.0 mi South 13.8 mph - N/A   Clear
8:54 PM 86.0 °F 87.6 °F 64.9 °F 49% 29.90 in 10.0 mi South 13.8 mph 19.6 mph N/A   Clear
9:54 PM 84.9 °F 86.1 °F 64.0 °F 49% 29.92 in 10.0 mi South 11.5 mph 19.6 mph N/A   Clear
10:54 PM 84.0 °F 85.4 °F 64.0 °F 51% 29.94 in 10.0 mi South 12.7 mph - N/A   Clear
11:54 PM 82.9 °F 84.4 °F 64.0 °F 53% 29.95 in 10.0 mi South 11.5 mph - N/A   Partly Cloudy